Home > Weather > Arctic Bay > Past weeks

Flag for Canada Past Weather in Arctic Bay, Nunavut, Canada — Yesterday and Last 2 Weeks

Now
43 °F

Overcast.


Feels Like: 41 °F
Forecast: 35 / 50 °F
Wind: 3 mph from West

Location: Pond Inlet

Current Time: Aug 29, 2016 at 3:30:53 AM

Latest Report: Aug 29, 2016 at 3:00 AM


Visibility: 9 mi

Pressure: 30.20 "Hg

Humidity: 93%

Dew Point: 41 °F

Location of Arctic BayLocation

Past Weather in Arctic Bay — Graph

°F

Arctic Bay Temperature Yesterday

Maximum temperature yesterday: 45 °F (at 4:00 PM)
Minimum temperature yesterday: 39 °F (at 1:02 AM)
Average temperature yesterday: 42 °F

High & Low Weather Summary for the Past Weeks

 TemperatureHumidityPressure
High57 °F (Aug 21, 5:00 PM)100% (Aug 14, 2:00 AM)30.24 "Hg (Aug 14, 2:00 AM)
Low34 °F (Aug 19, 4:00 AM)26% (Aug 21, 4:00 PM)29.58 "Hg (Aug 17, 11:00 AM)
Average46 °F77%29.86 "Hg
* Reported Aug 14 2:00 AM — Aug 29 2:00 AM, Arctic Bay, Weather by CustomWeather, © 2016

Note: Actual official high and low records may vary slightly from our data, if they occured in-between our weather recording intervals... More about our weather records

Advertising

Arctic Bay Weather History for the Previous 24 Hours

Scroll right to see more
 ConditionsComfort  
Time TempWeatherWind HumidityBarometerVisibility
2:00 AM
Mon, Aug 29
45 °FOvercast.2 mph87%30.20 "Hg9 mi
1:00 AM45 °FOvercast.2 mph93%30.20 "Hg9 mi
12:00 AM45 °FOvercast.2 mph87%30.21 "Hg9 mi
11:00 PM
Sun, Aug 28
45 °FOvercast.No wind87%30.22 "Hg9 mi
10:00 PM43 °FOvercast.No wind87%30.23 "Hg9 mi
9:00 PM43 °FOvercast.No wind93%30.23 "Hg9 mi
8:00 PM45 °FOvercast.2 mph87%30.23 "Hg9 mi
7:00 PM43 °FOvercast.2 mph93%30.24 "Hg9 mi
6:00 PM43 °FOvercast.5 mph93%30.24 "Hg9 mi
5:00 PM43 °FMostly cloudy.5 mph93%30.24 "Hg9 mi
4:00 PM45 °FOvercast.5 mph81%30.24 "Hg9 mi
3:00 PM43 °FMostly cloudy.2 mph87%30.24 "Hg9 mi
2:00 PM43 °FOvercast.3 mph87%30.23 "Hg9 mi
1:00 PM43 °FOvercast.3 mph93%30.24 "Hg9 mi
12:00 PM43 °FOvercast.3 mph93%30.23 "Hg9 mi
11:00 AM41 °FOvercast.No wind100%30.23 "Hg9 mi
10:00 AM43 °FCloudy.3 mph93%30.23 "Hg9 mi
9:00 AM43 °FOvercast.5 mph93%30.23 "Hg9 mi
8:00 AM43 °FOvercast.6 mph93%30.22 "Hg9 mi
7:00 AM41 °FPartly sunny.5 mph100%30.22 "Hg9 mi
6:46 AM41 °FFog.3 mph93%30.22 "Hg6 mi
6:00 AM39 °FFog.No wind100%30.21 "Hg0 mi
5:00 AM41 °FOvercast.6 mph93%30.19 "Hg9 mi
4:00 AM39 °FCloudy.3 mph93%30.19 "Hg9 mi
3:00 AM39 °FFog.2 mph100%30.18 "Hg1 mi
Weather by CustomWeather, © 2016

See weather overviewHow to use our weather pages